Location: Mentone
(34.5413°N, 85.5351°W)
Time: 15:50:45
(UTC-05:00)

Vanguard 1 - Visible Passes

Search period start: 27 July 2017 00:00
Search period end: 06 August 2017 00:00
Orbit: 652 x 3832 km, 34.3° (Epoch: 26 July)

Date Brightness Start Highest point End Pass type
(mag) Time Alt. Az. Time Alt. Az. Time Alt. Az.
27 Jul 12.5 00:19:30 10° WSW 00:36:30 81° SSE 01:00:28 10° E visible
27 Jul 12.8 02:42:53 10° W 03:04:38 89° S 03:27:00 10° E visible
27 Jul 12.9 05:08:52 10° WNW 05:32:11 67° SSW 05:50:01 10° SE visible
27 Jul 12.8 20:05:59 10° SSE 20:12:37 16° ESE 20:21:19 10° E visible
27 Jul 12.2 22:20:16 10° SW 22:33:04 55° SE 22:53:59 10° ENE visible
28 Jul 12.5 00:40:43 10° WSW 00:58:17 86° SSE 01:22:22 10° E visible
28 Jul 12.8 03:04:31 10° W 03:26:38 86° SSW 03:48:34 10° ESE visible
28 Jul 12.5 20:24:25 10° S 20:32:53 24° SE 20:45:20 10° E visible
28 Jul 12.2 22:40:52 10° SW 22:54:08 65° SSE 23:16:03 10° ENE visible
29 Jul 12.6 01:02:03 10° W 01:20:11 89° S 01:44:17 10° E visible
29 Jul 12.8 03:26:09 10° W 03:48:32 81° SSW 04:09:59 10° ESE visible
29 Jul 12.3 20:43:51 10° SSW 20:53:16 33° SE 21:08:19 10° ENE visible
29 Jul 12.2 23:01:42 10° WSW 23:15:25 74° SSE 23:38:04 10° ENE visible
30 Jul 12.6 01:23:28 10° W 01:42:10 90° S 02:06:09 10° E visible
30 Jul 12.8 03:47:47 10° WNW 04:10:16 74° SSW 04:31:13 10° ESE visible
30 Jul 12.1 21:03:48 10° SSW 21:13:48 43° SE 21:30:48 10° ENE visible
30 Jul 12.2 23:22:41 10° WSW 23:36:55 81° SSE 00:00:05 10° E visible
31 Jul 12.7 01:44:55 10° W 02:04:09 88° S 02:27:58 10° E visible
31 Jul 12.9 04:09:28 10° WNW 04:31:51 67° SSW 04:52:13 10° SE visible
31 Jul 11.9 21:24:06 10° SW 21:34:34 53° SE 21:53:01 10° ENE visible
31 Jul 12.3 23:43:49 10° WSW 23:58:35 86° S 00:22:07 10° E visible
01 Aug 12.7 02:06:23 10° W 02:26:06 85° SSW 02:49:40 10° ESE visible
01 Aug 12.9 04:31:13 10° WNW 04:53:14 58° SSW 05:12:57 10° SE visible
01 Aug 11.9 21:44:41 10° SW 21:55:32 63° SSE 22:15:07 10° ENE visible
02 Aug 12.4 00:05:04 10° W 00:20:22 89° S 00:44:09 10° E visible
02 Aug 12.7 02:27:52 10° W 02:47:58 80° SSW 03:11:13 10° ESE visible
02 Aug 13.0 04:53:06 10° WNW 05:14:26 49° SW 05:33:22 10° SSE visible
02 Aug 11.9 22:05:28 10° WSW 22:16:43 73° SSE 22:37:10 10° ENE visible
03 Aug 12.4 00:26:21 10° W 00:42:13 89° S 01:06:10 10° E visible
03 Aug 12.7 02:49:21 10° WNW 03:09:43 74° SSW 03:32:32 10° ESE visible
03 Aug 13.1 05:15:15 10° WNW 05:35:29 41° SW 05:53:25 10° SSE visible
03 Aug 11.8 20:08:02 10° SSW 20:16:06 39° SE 20:30:02 10° ENE visible
03 Aug 11.9 22:26:25 10° WSW 22:38:07 81° SSE 22:59:13 10° E visible
04 Aug 12.5 00:47:40 10° W 01:04:05 88° S 01:28:07 10° ESE visible
04 Aug 12.8 03:10:53 10° WNW 03:31:20 66° SSW 03:53:37 10° SE visible
04 Aug 11.6 20:28:20 10° SW 20:36:47 50° SE 20:52:13 10° ENE visible
04 Aug 12.0 22:47:29 10° WSW 22:59:38 86° S 23:21:19 10° E visible
05 Aug 12.5 01:09:00 10° W 01:25:56 84° SSW 01:49:57 10° ESE visible
05 Aug 12.8 03:32:30 10° WNW 03:52:48 57° SSW 04:14:24 10° SE visible
05 Aug 11.5 20:48:52 10° SW 20:57:42 61° SSE 21:14:15 10° ENE visible
05 Aug 12.1 23:08:37 10° W 23:21:17 89° S 23:43:26 10° E visible
